Temperature
7 8 8 8 8 6 6 6 7 7 7 9 7 4 3 2 1 0 -0 -1 -1 -2 -3 -3 -4 -5 -5 -5 -6 -6 -6 -7 -8 -9 -10 -10 -11 -12 -12 -12 -12 -12 -12 -11
8 8 7 6 6 6 6 6 5 6 8 7 4 4 2 1 1 0 0 -0 -1 -2 -3 -3 -4 -5 -5 -5 -6 -6 -6 -7 -8 -9 -10 -10 -11 -12 -12 -12 -12 -12 -12 -12
8 7 8 10 10 6 6 5 6 7 9 5 3 2 2 2 1 1 1 -0 -1 -2 -3 -3 -4 -4 -5 -5 -5 -6 -6 -7 -8 -9 -9 -10 -11 -12 -12 -12 -13 -13 -12 -12
6 8 13 13 9 8 8 8 5 6 6 5 5 4 4 4 3 2 1 -0 -1 -2 -3 -3 -4 -5 -5 -5 -6 -6 -6 -7 -8 -9 -9 -10 -10 -11 -12 -12 -13 -13 -13 -13
6 8 9 10 9 8 8 9 7 6 6 4 2 2 2 3 3 2 1 -0 -1 -2 -3 -3 -4 -5 -5 -5 -6 -6 -6 -7 -8 -9 -9 -10 -10 -11 -12 -12 -12 -13 -13 -13
5 10 11 13 8 8 9 9 10 8 6 2 -0 1 3 5 3 1 -0 -1 -2 -2 -3 -3 -4 -4 -5 -5 -6 -6 -6 -7 -8 -9 -9 -9 -10 -10 -11 -12 -12 -13 -13 -13
4 6 9 9 7 8 10 11 13 12 10 5 2 5 6 5 3 1 0 -1 -2 -2 -3 -3 -4 -4 -5 -5 -5 -6 -7 -7 -8 -8 -9 -9 -10 -10 -10 -11 -11 -12 -12 -12
3 5 8 9 5 7 12 14 13 12 11 10 9 6 5 5 3 1 0 -1 -1 -2 -3 -3 -4 -4 -5 -5 -5 -6 -6 -7 -8 -8 -9 -9 -10 -10 -10 -10 -11 -11 -12 -12
7 10 12 11 13 16 15 14 13 12 11 10 8 6 5 4 3 1 0 -1 -1 -2 -2 -3 -3 -4 -4 -5 -5 -6 -6 -7 -7 -8 -8 -9 -9 -10 -10 -10 -10 -11 -11 -11
5 7 10 12 14 15 14 14 13 12 10 9 9 7 5 4 2 1 0 -1 -1 -2 -2 -3 -3 -4 -4 -5 -5 -6 -6 -6 -7 -7 -7 -8 -9 -9 -10 -10 -11 -11 -11 -11
5 7 11 15 18 18 17 15 14 12 10 9 8 7 6 4 3 2 0 -0 -1 -2 -2 -3 -3 -4 -4 -5 -5 -5 -6 -6 -6 -7 -7 -7 -7 -8 -9 -10 -11 -11 -11 -11
12 14 12 17 18 17 16 15 14 13 11 8 7 7 5 4 3 2 1 -0 -1 -2 -2 -3 -3 -4 -4 -5 -5 -5 -6 -6 -6 -6 -6 -7 -7 -7 -8 -9 -10 -10 -11 -11
17 18 17 17 17 16 15 14 13 12 11 9 7 6 5 4 3 1 1 -0 -1 -1 -2 -3 -3 -4 -4 -4 -5 -5 -5 -6 -6 -6 -6 -6 -6 -7 -6 -7 -8 -9 -10 -10
17 17 16 17 17 16 14 13 12 11 10 8 7 6 4 4 3 2 1 0 -1 -2 -2 -3 -3 -3 -4 -4 -5 -5 -5 -6 -6 -6 -6 -6 -6 -6 -7 -7 -7 -8 -9 -10
15 16 16 16 16 15 13 12 11 11 9 7 6 5 4 4 3 2 1 -0 -1 -2 -2 -2 -3 -3 -4 -4 -4 -5 -5 -5 -5 -5 -5 -5 -6 -6 -6 -7 -8 -8 -9 -10
16 16 15 15 15 14 13 12 11 11 9 8 6 5 4 4 3 2 1 -0 -1 -1 -1 -2 -3 -3 -4 -4 -4 -5 -5 -5 -5 -5 -5 -5 -5 -6 -6 -6 -7 -8 -9 -10
14 15 15 15 16 15 14 14 13 11 10 8 7 5 4 3 2 1 0 -0 -0 -1 -2 -2 -3 -3 -3 -4 -4 -4 -5 -5 -5 -5 -5 -5 -5 -6 -6 -6 -7 -7 -8 -9
17 18 18 17 16 15 14 13 12 11 10 9 7 5 4 3 3 2 1 -0 -1 -1 -2 -2 -3 -3 -3 -4 -4 -4 -5 -5 -5 -5 -5 -5 -6 -6 -6 -6 -7 -7 -7 -8
18 19 19 18 17 15 14 13 12 11 10 8 7 5 4 4 3 2 1 -0 -1 -1 -1 -2 -2 -3 -3 -3 -4 -4 -4 -5 -5 -5 -5 -5 -6 -6 -6 -6 -7 -7 -7 -8
18 19 19 19 19 17 16 14 12 11 10 8 7 5 4 4 3 2 1 0 0 0 -1 -2 -2 -3 -3 -3 -4 -4 -4 -5 -5 -5 -5 -6 -6 -6 -6 -6 -7 -7 -7 -8
19 19 20 20 20 19 17 15 12 11 10 9 7 6 5 4 3 2 1 0 0 -1 -2 -2 -2 -2 -3 -3 -4 -4 -4 -5 -5 -5 -5 -6 -6 -6 -6 -7 -7 -7 -8 -8
19 20 20 20 20 19 17 15 13 11 10 9 7 6 4 4 3 2 2 1 1 -0 -1 -2 -2 -2 -3 -3 -4 -4 -4 -5 -5 -5 -5 -6 -6 -6 -7 -7 -7 -8 -8 -8
19 19 20 20 19 17 15 14 12 11 10 9 8 7 5 4 4 3 2 2 1 -1 -1 -2 -2 -3 -3 -3 -3 -4 -4 -4 -5 -5 -6 -6 -6 -6 -7 -7 -7 -8 -8 -8
15 16 16 16 15 14 14 14 12 11 10 9 8 7 6 4 4 3 3 2 1 -0 -1 -1 -2 -3 -3 -3 -3 -4 -4 -4 -5 -5 -6 -6 -6 -7 -7 -7 -8 -8 -8 -9
12 13 14 13 13 14 14 13 11 10 9 8 7 6 5 5 4 4 3 2 1 -0 -1 -1 -2 -3 -3 -3 -3 -4 -4 -4 -5 -5 -6 -6 -6 -7 -7 -8 -8 -8 -8 -9
11 10 10 11 11 11 12 12 11 10 9 8 7 6 5 4 3 3 2 2 1 -0 -1 -1 -2 -3 -3 -3 -3 -4 -4 -4 -5 -5 -6 -6 -7 -7 -7 -8 -8 -8 -9 -9
9 9 9 9 9 9 9 10 10 10 10 9 8 7 5 4 3 3 2 1 0 -0 -1 -1 -2 -2 -3 -3 -3 -4 -4 -4 -5 -5 -6 -6 -7 -7 -7 -8 -8 -9 -9 -9
Wind_Speed
8 7 5 7 9 9 10 10 10 10 11 18 10 9 10 10 11 10 9 8 7 5 3 3 5 5 6 6 7 7 7 8 8 9 10 10 10 10 11 11 13 13 14 15
6 3 4 8 11 10 11 8 10 11 18 12 3 2 7 12 14 12 10 10 8 7 5 5 5 5 6 6 6 6 7 7 8 9 10 10 10 10 11 11 12 12 13 14
5 7 7 9 9 10 8 10 11 11 11 3 4 7 10 14 15 13 10 9 9 8 6 5 5 5 5 6 6 6 7 7 8 9 10 10 11 11 11 11 11 12 12 13
3 8 6 7 1 7 8 10 12 11 12 7 7 4 5 9 14 12 11 10 9 8 6 5 4 4 4 5 5 6 7 7 8 8 9 10 9 10 10 8 9 8 10 12
1 4 10 11 4 6 6 10 9 12 14 2 4 2 4 8 11 11 11 9 8 7 6 5 4 4 4 4 5 6 7 7 8 8 8 9 9 9 8 8 8 8 9 10
4 2 7 8 3 4 2 8 8 9 8 8 8 3 7 11 11 10 9 8 8 7 6 5 5 3 3 4 5 6 7 7 8 7 8 9 9 8 6 8 8 10 11 10
6 7 11 8 5 6 3 8 5 9 9 13 13 8 3 12 11 10 9 8 8 8 7 6 4 3 4 4 5 6 7 7 7 7 8 8 7 7 8 9 10 10 10 11
6 6 10 7 10 11 12 4 6 7 9 12 10 5 8 12 13 13 10 9 8 8 7 6 5 4 4 6 6 6 6 7 7 8 8 8 8 8 8 9 9 9 9 10
12 11 6 12 13 11 5 7 8 8 9 11 10 9 11 11 12 12 12 11 8 8 7 6 5 5 5 5 5 6 7 7 8 8 8 7 7 8 8 8 8 9 8 9
8 15 12 13 13 13 10 10 8 9 10 14 11 13 14 14 13 12 12 11 9 9 8 7 6 6 6 5 5 6 7 8 7 7 8 8 8 7 7 8 9 9 8 9
9 12 11 12 14 17 14 11 9 9 10 15 15 13 15 14 15 14 13 11 10 10 9 8 7 6 6 5 4 5 7 7 7 7 7 8 8 7 9 8 11 12 9 9
13 12 9 11 7 7 10 12 13 12 10 10 13 16 16 15 14 14 13 12 10 10 9 8 7 6 6 5 4 5 6 6 6 6 7 7 8 9 13 13 17 17 17 17
16 9 9 11 6 7 9 11 12 15 14 13 12 14 16 12 14 14 13 14 13 12 10 8 7 7 6 5 5 5 5 6 6 7 7 8 8 9 11 13 16 16 19 21
15 7 9 11 10 9 9 7 10 10 10 11 13 13 14 11 12 15 15 15 12 10 9 8 8 7 6 5 5 5 5 7 7 5 5 6 6 7 8 10 11 10 14 20
16 16 15 9 4 5 6 7 9 11 11 11 10 13 16 16 16 16 13 12 11 10 9 8 8 8 6 6 5 5 5 4 5 4 4 5 6 6 7 9 9 10 9 12
10 12 13 13 14 10 9 11 12 15 15 15 14 15 16 15 13 12 12 14 13 13 12 11 10 7 7 6 5 4 4 7 7 4 4 5 5 5 6 8 9 9 9 10
11 13 13 13 16 14 16 16 17 16 17 18 18 16 14 12 11 13 14 14 12 11 10 11 10 7 7 6 5 4 3 4 6 5 4 5 5 5 5 6 7 8 8 12
19 22 18 15 13 15 17 17 16 16 16 16 15 16 17 18 18 17 15 12 10 8 9 9 8 7 7 6 5 4 3 3 3 3 4 4 4 4 5 5 7 8 8 10
21 23 21 17 15 13 15 17 18 17 15 16 18 20 19 18 16 14 14 14 14 14 12 11 14 11 8 9 8 5 4 3 3 3 3 5 5 5 5 5 6 7 7 8
20 20 19 16 14 14 15 13 14 15 16 18 18 17 17 15 14 15 16 15 15 10 8 11 12 10 9 9 9 5 5 4 4 3 3 3 4 5 5 5 6 6 6 7
21 19 18 17 16 14 14 15 17 18 18 19 21 20 19 16 16 15 15 14 12 10 10 14 11 9 9 9 10 6 6 5 4 3 3 3 4 4 4 5 6 7 7 8
19 18 19 17 15 14 13 14 16 17 18 19 18 16 16 17 17 15 14 10 11 18 12 9 9 13 14 13 7 7 6 6 5 4 3 3 3 4 4 5 5 6 6 7
17 16 14 13 14 11 11 13 16 18 20 21 21 21 20 18 16 15 14 11 9 19 15 11 15 19 19 11 7 8 7 7 6 5 4 4 4 3 4 4 5 5 6 7
9 7 6 7 10 12 15 16 15 14 15 15 16 17 17 15 13 12 6 17 21 20 13 16 22 22 20 9 8 8 7 7 6 5 5 4 4 4 4 4 4 5 5 7
4 4 7 11 13 13 12 12 13 12 13 11 12 14 14 12 11 13 11 15 23 21 12 17 23 23 14 9 10 9 8 7 7 6 6 5 5 4 4 4 4 5 5 6
4 5 7 9 8 7 9 12 13 12 13 13 13 13 12 9 9 11 12 13 17 20 15 11 13 16 11 10 10 9 8 8 8 7 6 6 5 5 4 4 5 4 5 6
3 4 4 6 6 8 10 12 13 14 15 15 14 14 14 13 12 13 14 13 14 14 12 11 11 11 11 10 10 9 8 8 7 6 6 6 5 5 5 5 5 6 7 8
Wind_Direction
257 258 239 241 227 195 198 207 217 248 256 277 284 235 204 176 167 168 177 185 187 192 217 256 279 292 300 304 313 324 330 331 329 325 324 325 328 328 330 335 339 336 338 341
293 216 259 264 242 214 221 223 237 266 276 274 308 138 160 169 176 184 191 191 189 193 207 234 260 282 297 305 313 324 329 326 326 329 329 330 331 333 334 335 335 336 337 339
287 304 319 280 241 188 207 210 200 232 256 218 234 210 192 187 187 191 190 186 186 192 206 225 244 266 282 297 311 324 325 324 326 327 329 330 334 336 334 330 330 333 332 336
304 352 280 249 112 176 216 244 217 240 261 236 237 212 201 185 187 188 183 181 182 185 197 215 231 256 278 299 317 322 323 322 322 324 325 325 329 331 327 322 326 325 324 331
98 309 284 295 241 182 209 280 226 229 256 187 105 58 264 205 188 185 178 173 175 178 187 197 221 251 283 307 319 321 320 318 316 317 319 322 326 324 318 319 319 320 323 327
140 222 260 258 164 165 105 286 246 206 216 159 146 207 252 184 171 162 158 157 163 169 178 196 216 233 267 299 311 311 309 307 307 310 315 314 314 314 312 318 320 325 327 326
178 226 262 251 152 144 176 253 226 192 190 171 193 211 182 152 154 153 154 158 162 170 185 198 202 213 254 282 289 293 301 303 306 310 310 304 311 309 312 318 321 317 314 315
164 201 255 197 148 186 220 215 185 197 190 191 197 148 146 156 157 158 159 161 167 177 193 197 195 204 248 269 279 296 302 304 306 308 310 319 315 309 310 311 313 310 307 311
194 218 240 179 203 221 205 210 209 203 199 179 170 175 167 167 165 167 168 172 175 181 190 199 201 204 240 261 288 304 308 306 306 308 307 310 308 306 311 309 310 310 312 320
242 261 252 229 240 249 226 226 220 198 181 172 178 176 173 172 173 174 176 179 179 180 191 205 209 215 231 262 287 299 304 306 307 308 310 314 317 316 315 314 315 317 323 323
248 269 290 265 233 240 237 225 212 191 184 184 175 173 176 177 180 180 182 182 183 189 197 204 203 220 235 251 273 291 300 304 311 314 309 314 320 315 317 315 324 338 335 327
238 231 216 255 235 207 208 213 201 185 186 185 182 179 176 180 179 179 180 180 186 193 198 200 201 221 233 239 250 277 300 310 313 312 317 323 321 323 329 336 338 343 344 344
236 245 227 255 253 196 209 212 192 189 185 185 184 178 175 175 178 178 180 183 191 194 196 193 200 219 229 231 245 262 280 299 306 314 320 324 328 331 331 335 341 346 349 348
240 254 278 256 240 215 207 196 179 185 186 179 173 172 173 165 170 179 187 189 187 184 186 190 201 220 222 220 240 262 276 296 309 303 309 315 320 326 330 332 334 337 342 345
231 220 233 254 233 183 168 154 168 186 181 175 169 171 173 175 181 187 184 175 174 182 191 194 207 221 210 210 232 255 274 284 291 298 309 312 316 323 330 332 332 333 334 339
222 223 236 244 238 205 181 186 195 199 190 183 181 183 184 182 177 172 171 172 178 194 199 200 212 212 195 202 226 247 266 297 314 321 322 320 318 324 334 336 336 337 337 333
219 237 229 235 232 213 205 205 206 200 191 190 190 181 170 164 164 173 181 185 190 194 194 199 207 197 192 197 209 228 249 286 313 323 313 308 308 321 328 331 333 334 332 333
225 238 234 227 225 213 211 208 206 197 194 192 176 168 172 178 185 186 183 178 182 196 206 203 194 186 192 196 203 213 227 249 274 291 298 304 314 324 322 322 325 328 329 336
233 240 244 235 220 203 202 203 203 198 185 174 174 180 185 188 184 175 168 173 187 206 214 201 202 195 198 207 204 198 207 233 260 281 292 314 331 320 317 320 323 323 327 338
238 240 241 236 213 203 202 190 186 186 181 176 177 180 184 184 174 169 173 188 200 199 176 182 193 191 192 204 201 182 196 214 233 259 281 296 307 312 317 323 325 322 327 335
236 237 234 229 216 202 193 181 180 183 180 179 182 186 185 180 174 171 179 199 204 177 173 186 184 186 187 196 199 183 192 204 215 228 255 283 299 309 316 322 327 329 333 334
231 231 230 220 203 197 187 180 180 177 176 182 186 180 175 175 178 183 195 198 179 182 180 183 180 188 190 193 181 182 191 198 204 212 230 253 275 294 307 317 320 323 326 323
233 228 220 203 193 181 167 177 180 178 181 184 185 184 183 181 180 185 198 196 170 181 181 186 190 192 194 188 179 186 191 196 201 207 217 231 248 267 285 300 306 312 312 314
252 235 200 163 151 164 184 189 183 182 183 184 187 185 179 177 187 197 178 175 180 183 183 190 192 194 193 178 180 187 191 195 198 203 211 223 235 249 265 281 292 300 304 310
259 195 166 170 186 199 193 173 170 171 174 183 186 185 186 183 180 184 172 172 179 180 180 190 191 193 187 175 183 188 191 196 197 199 206 214 224 236 252 266 280 293 300 304
216 208 205 206 206 190 175 175 181 183 182 185 188 187 187 178 160 163 169 173 177 181 177 180 185 191 182 181 185 187 190 200 212 205 198 206 216 225 239 254 273 279 288 295
219 209 203 210 209 192 183 186 188 188 187 186 184 182 180 178 171 168 170 173 178 181 177 179 181 182 180 181 183 185 187 191 195 197 198 204 209 216 224 240 258 274 285 292
Height
1594 1591 1591 1589 1587 1590 1592 1589 1589 1575 1568 1549 1548 1549 1548 1551 1554 1557 1559 1561 1562 1562 1562 1560 1559 1556 1553 1550 1545 1541 1536 1530 1525 1519 1513 1507 1501 1495 1490 1484 1478 1472 1466 1460
1591 1587 1589 1587 1580 1583 1584 1582 1580 1573 1561 1544 1544 1544 1544 1547 1550 1552 1555 1557 1558 1559 1558 1557 1556 1554 1551 1548 1544 1539 1535 1529 1524 1518 1512 1507 1501 1495 1489 1484 1478 1472 1467 1461
1594 1589 1582 1575 1562 1570 1570 1568 1566 1563 1549 1543 1543 1542 1541 1542 1545 1547 1551 1553 1554 1555 1555 1555 1554 1552 1549 1546 1542 1538 1534 1529 1523 1518 1512 1506 1501 1495 1489 1484 1478 1473 1467 1462
1600 1590 1577 1558 1556 1556 1558 1554 1554 1549 1541 1540 1539 1538 1538 1539 1541 1544 1547 1549 1551 1552 1552 1552 1551 1550 1547 1544 1541 1537 1533 1528 1523 1517 1512 1506 1501 1495 1489 1484 1478 1473 1468 1463
1602 1595 1581 1558 1553 1555 1556 1550 1540 1541 1536 1537 1536 1537 1535 1535 1538 1541 1544 1546 1548 1548 1549 1549 1549 1547 1545 1543 1539 1536 1532 1527 1522 1517 1512 1506 1501 1495 1489 1484 1478 1473 1468 1463
1603 1590 1580 1552 1552 1551 1554 1550 1532 1532 1531 1533 1536 1539 1531 1529 1533 1537 1540 1542 1544 1545 1546 1546 1546 1545 1543 1541 1538 1534 1530 1526 1521 1516 1512 1507 1501 1495 1490 1484 1479 1473 1468 1463
1600 1594 1571 1548 1548 1552 1555 1541 1527 1526 1526 1527 1527 1526 1525 1526 1529 1533 1536 1539 1540 1541 1542 1543 1543 1542 1541 1539 1536 1533 1529 1525 1521 1516 1511 1506 1501 1496 1490 1485 1479 1474 1468 1462
1595 1594 1567 1541 1544 1544 1532 1522 1521 1521 1521 1520 1519 1520 1521 1523 1525 1529 1532 1534 1536 1538 1539 1540 1540 1540 1538 1537 1534 1531 1528 1524 1520 1515 1511 1506 1501 1496 1490 1484 1478 1472 1466 1461
1562 1547 1530 1527 1524 1521 1519 1518 1516 1516 1515 1515 1515 1515 1517 1520 1522 1525 1528 1531 1533 1535 1536 1537 1537 1537 1536 1535 1533 1530 1527 1523 1519 1515 1510 1505 1500 1494 1489 1483 1477 1471 1466 1461
1550 1530 1521 1520 1517 1515 1514 1512 1511 1511 1510 1509 1509 1510 1513 1516 1518 1521 1524 1527 1529 1531 1532 1533 1534 1534 1534 1533 1531 1528 1525 1522 1518 1514 1509 1505 1499 1493 1487 1482 1476 1472 1467 1462
1538 1522 1515 1509 1508 1507 1506 1505 1504 1503 1503 1503 1504 1506 1508 1511 1513 1517 1520 1523 1526 1527 1529 1530 1530 1531 1531 1530 1528 1526 1524 1520 1517 1513 1508 1503 1498 1493 1487 1482 1478 1474 1468 1463
1518 1507 1508 1503 1502 1501 1500 1498 1498 1497 1496 1497 1499 1501 1504 1506 1509 1512 1516 1519 1521 1524 1525 1526 1527 1527 1528 1527 1526 1524 1522 1519 1515 1511 1507 1502 1496 1492 1488 1483 1478 1473 1469 1464
1501 1500 1500 1496 1495 1493 1492 1492 1491 1490 1490 1491 1493 1496 1499 1501 1505 1508 1511 1514 1517 1520 1522 1523 1523 1524 1525 1524 1523 1522 1520 1517 1514 1510 1506 1501 1495 1490 1484 1481 1477 1472 1467 1463
1494 1496 1493 1488 1487 1486 1485 1485 1484 1484 1484 1486 1488 1491 1494 1497 1499 1502 1506 1510 1513 1516 1518 1519 1520 1521 1521 1521 1521 1519 1518 1515 1513 1509 1505 1501 1496 1491 1485 1479 1473 1470 1466 1461
1485 1487 1484 1482 1479 1477 1477 1476 1476 1476 1477 1478 1481 1484 1487 1490 1493 1497 1502 1506 1509 1511 1513 1515 1516 1517 1518 1518 1518 1517 1516 1514 1511 1508 1505 1501 1496 1492 1486 1480 1474 1469 1464 1460
1474 1476 1474 1472 1469 1468 1467 1467 1467 1467 1469 1470 1473 1477 1481 1485 1489 1493 1497 1500 1503 1505 1508 1510 1512 1514 1514 1514 1514 1514 1513 1512 1510 1507 1504 1501 1497 1492 1487 1481 1475 1469 1464 1459
1466 1462 1462 1460 1457 1457 1456 1457 1458 1459 1460 1462 1465 1471 1475 1479 1483 1486 1490 1494 1498 1502 1504 1506 1508 1509 1510 1511 1511 1511 1510 1509 1508 1506 1503 1500 1496 1492 1487 1482 1476 1471 1465 1460
1451 1450 1450 1449 1447 1446 1446 1447 1448 1449 1451 1455 1460 1463 1467 1470 1474 1478 1483 1488 1492 1496 1498 1501 1503 1505 1506 1507 1507 1507 1507 1507 1506 1504 1502 1499 1496 1492 1488 1483 1478 1472 1467 1461
1439 1439 1439 1437 1435 1435 1435 1436 1437 1440 1443 1446 1450 1453 1458 1463 1468 1473 1478 1481 1485 1488 1493 1496 1498 1500 1502 1503 1503 1504 1504 1504 1503 1502 1500 1498 1495 1492 1488 1483 1479 1473 1467 1462
1429 1429 1428 1426 1424 1423 1423 1425 1428 1430 1433 1437 1441 1446 1450 1456 1461 1466 1470 1473 1477 1483 1488 1491 1493 1495 1497 1498 1499 1500 1500 1500 1500 1499 1498 1497 1494 1491 1488 1483 1479 1474 1468 1463
1417 1417 1416 1414 1411 1410 1412 1414 1417 1420 1423 1427 1430 1434 1441 1448 1453 1458 1462 1466 1471 1477 1482 1484 1487 1489 1492 1493 1494 1495 1496 1497 1497 1497 1496 1495 1493 1490 1487 1483 1478 1474 1469 1464
1404 1404 1403 1400 1398 1398 1401 1404 1407 1410 1414 1418 1422 1428 1434 1439 1444 1449 1454 1459 1465 1471 1474 1478 1481 1484 1486 1488 1490 1491 1492 1493 1493 1493 1493 1492 1491 1488 1485 1482 1478 1474 1469 1464
1391 1390 1388 1386 1386 1388 1391 1394 1397 1400 1404 1408 1412 1417 1422 1428 1434 1440 1444 1451 1457 1463 1467 1471 1475 1478 1481 1482 1484 1486 1487 1488 1489 1490 1490 1489 1488 1486 1484 1480 1477 1473 1469 1464
1381 1379 1377 1377 1378 1380 1382 1384 1388 1392 1396 1401 1406 1411 1416 1421 1427 1433 1439 1445 1450 1455 1459 1465 1469 1472 1474 1477 1479 1481 1482 1484 1485 1486 1486 1486 1485 1483 1481 1479 1475 1472 1468 1463
1374 1371 1370 1370 1371 1372 1374 1377 1380 1383 1388 1392 1397 1402 1408 1414 1420 1426 1432 1437 1443 1448 1453 1458 1462 1465 1468 1471 1473 1475 1477 1479 1480 1481 1482 1482 1481 1480 1478 1476 1473 1470 1466 1462
1366 1365 1363 1363 1364 1366 1366 1368 1370 1373 1378 1382 1387 1392 1399 1405 1412 1419 1425 1430 1435 1440 1445 1450 1454 1458 1461 1464 1467 1470 1472 1474 1475 1476 1477 1478 1478 1477 1475 1473 1471 1468 1464 1461
1360 1359 1357 1356 1356 1357 1358 1359 1362 1365 1369 1373 1377 1383 1389 1396 1402 1409 1416 1422 1427 1432 1437 1442 1447 1450 1454 1458 1461 1464 1466 1468 1470 1471 1473 1473 1473 1473 1472 1470 1468 1465 1462 1459